IRVINE 01
1 43693U 18088D 23026.36515694 .01468003 11843-2 31424-2 0 9999
2 43693 85.0067 156.4116 0013925 315.6654 44.3513 15.98703614234785
QO-100
1 43700U 18090A 23026.55000841 .00000140 00000-0 00000 0 0 9992
2 43700 0.0124 86.5690 0002304 257.2875 5.4787 1.00271797 15519
Reaktor Hello World
1 43743U 18096AA 23026.16242956 .00040175 00000-0 92871-3 0 9990
2 43743 97.3334 110.9045 0012624 341.1613 18.9166 15.42310194232172
MinXSS-2
1 43758U 18099A 23026.40975359 .00007472 00000-0 61809-3 0 9996
2 43758 97.6003 93.8360 0012459 232.1461 127.8635 14.99129637226488
AO-95
1 43770U 18099N 23025.70354460 .00005959 00000-0 51004-3 0 9990
2 43770 97.5927 91.1193 0012939 248.1809 111.8038 14.97890339226265
RANGE-B
1 43772U 18099Q 23026.11277585 .00009142 00000-0 75749-3 0 9990
2 43772 97.6042 93.7968 0012903 231.1429 128.8643 14.99000698226369
RANGE-A
1 43773U 18099R 23026.11014903 .00004997 00000-0 43741-3 0 9994
2 43773 97.5846 89.9840 0011925 231.7963 128.2186 14.97094557226292
MOVE-II
1 43780U 18099Y 23026.41357813 .00010211 00000-0 81865-3 0 9990
2 43780 97.6027 93.6327 0010442 249.6548 110.3554 15.00258855226451
SNUSat 2
1 43782U 18099AA 23025.66538869 .00006683 00000-0 57063-3 0 9991
2 43782 97.5949 91.5935 0010463 229.3593 130.6721 14.97958032226286
SnugLite
1 43784U 18099AC 23026.13019628 .00007798 00000-0 65825-3 0 9996
2 43784 97.5907 91.6693 0012489 236.5069 123.4961 14.98332902226382
ITASat 1
1 43786U 18099AE 23026.42160978 .00004400 00000-0 37823-3 0 9999
2 43786 97.5966 92.8384 0013224 238.9955 120.9969 14.97854046226418
EAGLET 1
1 43790U 18099AJ 23026.63901012 .00004273 00000-0 36827-3 0 9990
2 43790 97.5947 93.5863 0012150 240.7798 119.2209 14.97782882226185
ESEO
1 43792U 18099AL 23026.41434640 .00002015 00000-0 18067-3 0 9994
2 43792 97.5913 92.2027 0011531 239.0792 120.9297 14.96830348226170
CSIM
1 43793U 18099AM 23026.42231796 .00008710 00000-0 68763-3 0 9999
2 43793 97.6007 94.8001 0016445 232.8281 127.1442 15.00833285226292
Astrocast 0.1
1 43798U 18099AS 23026.10473787 .00009443 00000-0 76908-3 0 9991
2 43798 97.5952 93.9983 0012157 221.2974 138.7331 14.99660934226450
JO-97
1 43803U 18099AX 23025.94524053 .00006921 00000-0 57937-3 0 9991
2 43803 97.5944 92.2337 0012441 237.9839 122.0176 14.98697789226374
Suomi 100
1 43804U 18099AY 23026.11650898 .00007135 00000-0 60021-3 0 9995
2 43804 97.5908 92.2633 0013303 235.3467 124.6502 14.98488688226402
Al Farabi 2
1 43805U 18099AZ 23026.12544055 .00010407 00000-0 84927-3 0 9991
2 43805 97.5933 93.0699 0012704 231.7881 128.2199 14.99552664226449
CHOMPTT
1 43855U 18104G 23026.39975518 .00019354 00000-0 60958-3 0 9992
2 43855 85.0306 262.0305 0015568 122.0478 238.2284 15.32670343228809
ISAT
1 43879U 18111D 23025.99145132 .00008528 00000-0 69152-3 0 9998
2 43879 97.6505 292.6070 0011870 286.8779 73.1142 14.99866132223009
UWE-4
1 43880U 18111E 23025.97745017 .00007442 00000-0 60312-3 0 9999
2 43880 97.6578 293.4375 0011591 300.5136 59.4943 14.99932999223033
Sparrow
1 43881U 18111F 23025.96508658 .00009356 00000-0 75108-3 0 9992
2 43881 97.6640 293.7548 0010288 310.7695 49.2635 15.00240465223043
Lume 1
1 43908U 18111AJ 23026.57757098 .00029253 00000-0 81419-3 0 9994
2 43908 97.1623 272.7157 0015867 2.6627 357.4699 15.36647802227573
FO-99
1 43937U 19003F 23026.55787683 .00036786 00000-0 96050-3 0 9994
2 43937 97.1078 56.8786 0018952 74.6843 285.6496 15.38521937224177
AstroCast 0.2
1 44083U 19018F 23026.62775499 .00030341 00000-0 90997-3 0 9998
2 44083 97.2916 86.7595 0008395 47.7755 312.4199 15.34388024212603
AISTechSat 3
1 44103U 19018AB 23026.09982306 .00025342 00000-0 79619-3 0 9992
2 44103 97.2775 86.2123 0011901 66.0461 294.2027 15.32911551212686
AISat 1
1 44104U 19018AC 23026.81858949 .00018740 00000-0 44924-3 0 9993
2 44104 97.3813 116.2621 0047793 51.6657 308.8870 15.40235911213916
Prox-1
1 44339U 19036A 23025.90208691 .00009377 00000-0 19988-2 0 9992
2 44339 23.9997 227.5075 0009465 136.7230 223.4006 14.56961022190809
Oculus-ASR
1 44348U 19036K 23026.44588742 .00331520 29690-4 92357-3 0 9990
2 44348 28.4902 55.0606 0093832 358.7657 1.2713 15.85160868199245
NO-104
1 44354U 19036R 23026.11382245 .00468064 75856-4 92429-3 0 9990
2 44354 28.5155 34.2212 0076339 28.6542 331.8238 15.93408864199428
Move-IIb
1 44398U 19038N 23026.48802906 .00034066 00000-0 13011-2 0 9996
2 44398 97.6542 4.2164 0020873 76.8970 283.4596 15.26351187196953
SONATE
1 44400U 19038Q 23026.45362536 .00011485 00000-0 57136-3 0 9994
2 44400 97.6699 1.7055 0024443 84.9589 275.4433 15.17520281196712
BeeSat 9
1 44412U 19038AC 23026.45660965 .00021453 00000-0 93585-3 0 9998
2 44412 97.6630 3.3942 0020798 84.5785 275.7823 15.21982769196541
JAISAT-1
1 44419U 19038F 23026.44042250 .00021303 00000-0 91825-3 0 9994
2 44419 97.6631 4.3807 0019761 81.9473 278.4004 15.22410705196912
Taurus 1
1 44530U 19059C 23026.40816881 .00007276 00000-0 19531-2 0 9992
2 44530 98.5495 132.2855 0013953 161.9924 198.1693 14.48352286178104
Duchifat 3
1 44854U 19089C 23026.69941506 .00010396 00000-0 75625-3 0 9992
2 44854 36.9626 215.0877 0007889 253.9443 197.9967 15.03293904171510
OPS-SAT
1 44878U 19092F 23026.49867494 .00022962 00000-0 90250-3 0 9996
2 44878 97.4766 214.2806 0010425 286.1520 73.8571 15.25634619172127
TO-108
1 44881U 19093C 23026.67643670 .00001820 00000-0 23514-3 0 9998
2 44881 97.8751 107.5062 0014773 174.3062 185.8317 14.82085110167838
FloripaSat 1
1 44885U 19093G 23026.72403512 .00006027 00000-0 72367-3 0 9991
2 44885 97.8809 109.5494 0014182 178.4226 181.7016 14.84292658167951
RS-44
1 44909U 19096E 23026.55741902 .00000014 00000-0 53501-5 0 9991
2 44909 82.5192 82.0597 0217973 157.8606 203.2087 12.79718008144046
BY70-2
1 45857U 20042B 23026.73241809 .00023010 00000-0 27616-2 0 9994
2 45857 97.9386 106.7706 0010260 110.3709 249.8658 14.83973972138513
UPMSat 2
1 46276U 20061E 23026.14716309 .00009983 00000-0 46004-3 0 9994
2 46276 97.3660 96.8500 0002630 98.8319 261.3215 15.20467785132680
AmicalSat
1 46287U 20061R 23026.15831896 .00013171 00000-0 69302-3 0 9996
2 46287 97.4200 95.6322 0001569 197.7467 162.3711 15.15766056132166
SALSAT
1 46495U 20068K 23026.41705241 .00005144 00000-0 35736-3 0 9992
2 46495 97.7546 333.2508 0014550 238.1892 121.7918 15.05908001127727
BY70-3
1 46839U 20079N 23026.59610515 .00112456 00000-0 13499-2 0 9990
2 46839 97.1705 102.5167 0004038 243.3208 252.7098 15.60513129124777
CAPE 3
1 47309U 21002A 23026.02319279 .00028402 00000-0 92606-3 0 9996
2 47309 60.6798 244.2376 0040157 107.0143 253.5354 15.30924943112441
AO-109
1 47311U 21002C 23026.04287636 .00023477 00000-0 77732-3 0 9992
2 47311 60.6820 241.6316 0037402 104.3637 256.1610 15.30631162112466
MiTEE 1
1 47314U 21002F 23025.97668031 .00069790 00000-0 15160-2 0 9992
2 47314 60.6760 225.4958 0032912 98.5861 261.8967 15.43309587112755
ExoCube 2
1 47319U 21002L 23026.04637324 .00023497 00000-0 79096-3 0 9990
2 47319 60.6802 243.2558 0038231 106.2003 254.3300 15.30067900112402
